Time,TemperatureF,DewpointF,PressureIn,WindDirection,WindDirectionDegrees,WindSpeedMPH,WindSpeedGustMPH,Humidity,HourlyPrecipIn,Conditions,Clouds,dailyrainin,SoftwareType,DateUTC
2013-04-17 00:00:00,66.6,59.5,30.08,SSW,210,4.0,10.0,78,0.00,,,0.00,meteohub,2013-04-17 04:00:00,
2013-04-17 00:05:00,66.4,59.4,30.08,SE,131,3.0,10.0,78,0.00,,,0.00,meteohub,2013-04-17 04:05:00,
2013-04-17 00:10:00,66.4,59.4,30.07,South,170,5.0,9.0,78,0.00,,,0.00,meteohub,2013-04-17 04:10:00,
2013-04-17 00:15:00,66.4,59.7,30.07,SW,233,3.0,9.0,79,0.00,,,0.00,meteohub,2013-04-17 04:15:00,
2013-04-17 00:20:00,66.2,59.5,30.07,South,191,4.0,12.0,79,0.00,,,0.00,meteohub,2013-04-17 04:20:00,
2013-04-17 00:25:00,66.2,59.5,30.07,South,177,5.0,12.0,79,0.00,,,0.00,meteohub,2013-04-17 04:25:00,
2013-04-17 00:30:00,66.0,59.4,30.07,South,184,3.0,9.0,79,0.00,,,0.00,meteohub,2013-04-17 04:30:00,
2013-04-17 00:35:00,66.0,59.4,30.07,South,177,7.0,9.0,79,0.00,,,0.00,meteohub,2013-04-17 04:35:00,
2013-04-17 00:40:00,66.0,59.4,30.07,South,188,4.0,9.0,79,0.00,,,0.00,meteohub,2013-04-17 04:40:00,
2013-04-17 00:45:00,66.0,59.4,30.07,South,184,5.0,9.0,79,0.00,,,0.00,meteohub,2013-04-17 04:45:00,
2013-04-17 00:50:00,65.8,59.2,30.07,South,174,4.0,9.0,79,0.00,,,0.00,meteohub,2013-04-17 04:50:00,
2013-04-17 00:55:00,65.8,59.2,30.07,SW,215,4.0,9.0,79,0.00,,,0.00,meteohub,2013-04-17 04:55:00,
2013-04-17 01:00:00,65.8,59.2,30.09,WSW,245,5.0,9.0,79,0.00,,,0.00,meteohub,2013-04-17 05:00:00,
2013-04-17 01:05:00,65.8,59.5,30.11,West,274,2.0,9.0,80,0.00,,,0.00,meteohub,2013-04-17 05:05:00,
2013-04-17 01:10:00,65.8,59.5,30.11,West,259,1.0,9.0,80,0.00,,,0.00,meteohub,2013-04-17 05:10:00,
2013-04-17 01:15:00,66.0,59.7,30.12,NW,319,2.0,5.0,80,0.00,,,0.00,meteohub,2013-04-17 05:15:00,
2013-04-17 01:20:00,66.2,59.5,30.13,NW,315,2.0,5.0,79,0.00,,,0.00,meteohub,2013-04-17 05:20:00,
2013-04-17 01:25:00,66.6,59.5,30.13,NNW,336,6.0,6.0,78,0.00,,,0.00,meteohub,2013-04-17 05:25:00,
2013-04-17 01:30:00,66.7,59.4,30.13,West,264,1.0,8.0,77,0.00,,,0.00,meteohub,2013-04-17 05:30:00,
2013-04-17 01:35:00,66.9,59.2,30.13,NW,308,5.0,8.0,76,0.00,,,0.00,meteohub,2013-04-17 05:35:00,
2013-04-17 01:40:00,67.3,59.5,30.12,WNW,292,0.0,8.0,76,0.00,,,0.00,meteohub,2013-04-17 05:40:00,
2013-04-17 01:45:00,66.9,59.9,30.12,West,259,3.0,8.0,78,0.00,,,0.00,meteohub,2013-04-17 05:45:00,
2013-04-17 01:50:00,66.7,59.7,30.11,WNW,287,4.0,8.0,78,0.00,,,0.00,meteohub,2013-04-17 05:50:00,
2013-04-17 01:56:00,66.7,60.1,30.10,SW,217,3.0,8.0,79,0.00,,,0.00,meteohub,2013-04-17 05:56:00,
2013-04-17 02:01:00,66.6,59.9,30.10,SW,217,1.0,6.0,79,0.00,,,0.00,meteohub,2013-04-17 06:01:00,
2013-04-17 02:06:00,66.4,60.1,30.10,SW,231,0.0,6.0,80,0.00,,,0.00,meteohub,2013-04-17 06:06:00,
2013-04-17 02:11:00,66.0,59.7,30.10,SW,214,3.0,6.0,80,0.01,,,0.01,meteohub,2013-04-17 06:11:00,
2013-04-17 02:16:00,66.0,60.1,30.10,SSE,163,3.0,5.0,81,0.01,,,0.01,meteohub,2013-04-17 06:16:00,
2013-04-17 02:21:00,65.7,60.4,30.09,SW,217,2.0,7.0,83,0.01,,,0.01,meteohub,2013-04-17 06:21:00,
2013-04-17 02:26:00,65.5,60.3,30.09,South,176,6.0,7.0,83,0.01,,,0.01,meteohub,2013-04-17 06:26:00,
2013-04-17 02:32:00,65.3,60.3,30.08,WSW,244,1.0,7.0,84,0.01,,,0.01,meteohub,2013-04-17 06:32:00,
2013-04-17 02:37:00,65.1,60.1,30.08,SSW,200,3.0,7.0,84,0.01,,,0.01,meteohub,2013-04-17 06:37:00,
2013-04-17 02:42:00,65.1,60.1,30.08,South,186,1.0,6.0,84,0.01,,,0.01,meteohub,2013-04-17 06:42:00,
2013-04-17 02:47:00,64.9,59.9,30.07,SE,136,0.0,4.0,84,0.01,,,0.01,meteohub,2013-04-17 06:47:00,
2013-04-17 02:52:00,64.8,59.9,30.07,SSE,148,1.0,4.0,84,0.01,,,0.01,meteohub,2013-04-17 06:52:00,
2013-04-17 02:57:00,64.6,59.7,30.07,SSE,166,0.0,3.0,84,0.01,,,0.01,meteohub,2013-04-17 06:57:00,
2013-04-17 03:02:00,64.6,59.9,30.06,SW,215,0.0,2.0,85,0.01,,,0.01,meteohub,2013-04-17 07:02:00,
2013-04-17 03:07:00,64.4,59.7,30.06,SSW,203,1.0,2.0,85,0.01,,,0.01,meteohub,2013-04-17 07:07:00,
2013-04-17 03:12:00,64.6,60.3,30.06,SW,231,3.0,3.0,86,0.00,,,0.01,meteohub,2013-04-17 07:12:00,
2013-04-17 03:17:00,64.8,60.1,30.06,SSW,197,0.0,4.0,85,0.00,,,0.01,meteohub,2013-04-17 07:17:00,
2013-04-17 03:22:00,64.6,59.9,30.05,SE,127,2.0,4.0,85,0.00,,,0.01,meteohub,2013-04-17 07:22:00,
2013-04-17 03:27:00,64.6,59.9,30.05,SE,125,1.0,4.0,85,0.00,,,0.01,meteohub,2013-04-17 07:27:00,
2013-04-17 03:32:00,64.6,59.9,30.04,South,174,0.0,2.0,85,0.00,,,0.01,meteohub,2013-04-17 07:32:00,
2013-04-17 03:37:00,64.2,59.5,30.05,WSW,255,2.0,2.0,85,0.00,,,0.01,meteohub,2013-04-17 07:37:00,
2013-04-17 03:42:00,64.2,59.5,30.05,SSE,160,1.0,2.0,85,0.00,,,0.01,meteohub,2013-04-17 07:42:00,
2013-04-17 03:47:00,64.2,59.5,30.04,SSE,159,0.0,3.0,85,0.00,,,0.01,meteohub,2013-04-17 07:47:00,
2013-04-17 03:52:00,64.2,59.5,30.04,South,169,3.0,3.0,85,0.00,,,0.01,meteohub,2013-04-17 07:52:00,
2013-04-17 03:57:00,64.0,59.4,30.04,SW,225,1.0,4.0,85,0.00,,,0.01,meteohub,2013-04-17 07:57:00,
2013-04-17 04:02:00,64.0,59.4,30.04,SW,236,0.0,4.0,85,0.00,,,0.01,meteohub,2013-04-17 08:02:00,
2013-04-17 04:07:00,63.9,59.5,30.05,SW,236,0.0,4.0,86,0.00,,,0.01,meteohub,2013-04-17 08:07:00,
2013-04-17 04:12:00,64.0,59.7,30.05,NNW,328,1.0,3.0,86,0.00,,,0.01,meteohub,2013-04-17 08:12:00,
2013-04-17 04:17:00,64.2,59.9,30.05,NW,315,1.0,2.0,86,0.00,,,0.01,meteohub,2013-04-17 08:17:00,
2013-04-17 04:22:00,64.2,59.5,30.05,West,260,1.0,2.0,85,0.00,,,0.01,meteohub,2013-04-17 08:22:00,
2013-04-17 04:27:00,64.2,59.5,30.06,WSW,245,2.0,2.0,85,0.00,,,0.01,meteohub,2013-04-17 08:27:00,
2013-04-17 04:32:00,64.2,59.5,30.06,WNW,300,1.0,4.0,85,0.00,,,0.01,meteohub,2013-04-17 08:32:00,
2013-04-17 04:37:00,64.0,59.4,30.06,SSW,205,0.0,4.0,85,0.00,,,0.01,meteohub,2013-04-17 08:37:00,
2013-04-17 04:42:00,64.0,59.4,30.06,SE,141,1.0,4.0,85,0.00,,,0.01,meteohub,2013-04-17 08:42:00,
2013-04-17 04:47:00,64.0,59.4,30.06,SSE,156,1.0,3.0,85,0.00,,,0.01,meteohub,2013-04-17 08:47:00,
2013-04-17 04:52:00,63.9,59.2,30.06,SSE,167,1.0,2.0,85,0.00,,,0.01,meteohub,2013-04-17 08:52:00,
2013-04-17 04:57:00,63.9,59.2,30.06,South,169,0.0,2.0,85,0.00,,,0.01,meteohub,2013-04-17 08:57:00,
2013-04-17 05:02:00,63.7,59.0,30.06,SSE,167,0.0,2.0,85,0.00,,,0.01,meteohub,2013-04-17 09:02:00,
2013-04-17 05:07:00,63.3,58.8,30.06,SSE,167,0.0,2.0,85,0.00,,,0.01,meteohub,2013-04-17 09:07:00,
2013-04-17 05:12:00,63.3,59.0,30.06,South,170,1.0,1.0,86,0.00,,,0.01,meteohub,2013-04-17 09:12:00,
2013-04-17 05:18:00,63.1,58.8,30.06,SSE,156,1.0,1.0,86,0.00,,,0.01,meteohub,2013-04-17 09:18:00,
2013-04-17 05:23:00,63.1,58.8,30.06,South,170,0.0,2.0,86,0.00,,,0.01,meteohub,2013-04-17 09:23:00,
2013-04-17 05:28:00,63.1,58.6,30.06,South,190,1.0,2.0,85,0.00,,,0.01,meteohub,2013-04-17 09:28:00,
2013-04-17 05:33:00,63.3,59.0,30.06,SW,225,0.0,3.0,86,0.00,,,0.01,meteohub,2013-04-17 09:33:00,
2013-04-17 05:38:00,63.3,59.0,30.07,SSW,210,0.0,3.0,86,0.00,,,0.01,meteohub,2013-04-17 09:38:00,
2013-04-17 05:43:00,63.1,58.6,30.07,SSW,193,0.0,3.0,85,0.00,,,0.01,meteohub,2013-04-17 09:43:00,
2013-04-17 05:48:00,63.0,58.1,30.07,SSW,193,0.0,2.0,84,0.00,,,0.01,meteohub,2013-04-17 09:48:00,
2013-04-17 05:53:00,63.0,58.5,30.08,SSW,193,0.0,2.0,85,0.00,,,0.01,meteohub,2013-04-17 09:53:00,
2013-04-17 05:58:00,62.8,57.9,30.08,SSW,193,0.0,1.0,84,0.00,,,0.01,meteohub,2013-04-17 09:58:00,
2013-04-17 06:03:00,62.8,58.5,30.08,SSW,193,0.0,0.0,86,0.00,,,0.01,meteohub,2013-04-17 10:03:00,
2013-04-17 06:08:00,62.6,58.3,30.08,SSW,193,0.0,0.0,86,0.00,,,0.01,meteohub,2013-04-17 10:08:00,
2013-04-17 06:13:00,62.4,58.5,30.08,SSW,193,0.0,0.0,87,0.00,,,0.01,meteohub,2013-04-17 10:13:00,
2013-04-17 06:18:00,62.1,58.5,30.08,SSW,193,0.0,0.0,88,0.00,,,0.01,meteohub,2013-04-17 10:18:00,
2013-04-17 06:23:00,61.7,58.1,30.08,SSW,193,0.0,0.0,88,0.00,,,0.01,meteohub,2013-04-17 10:23:00,
2013-04-17 06:28:00,61.7,58.1,30.09,SSW,193,0.0,0.0,88,0.00,,,0.01,meteohub,2013-04-17 10:28:00,
2013-04-17 06:33:00,61.5,58.3,30.09,SSW,193,0.0,0.0,89,0.00,,,0.01,meteohub,2013-04-17 10:33:00,
2013-04-17 06:38:00,61.3,58.1,30.09,SSW,193,0.0,0.0,89,0.00,,,0.01,meteohub,2013-04-17 10:38:00,
2013-04-17 06:43:00,61.2,57.6,30.09,SSW,193,0.0,0.0,88,0.00,,,0.01,meteohub,2013-04-17 10:43:00,
2013-04-17 06:48:00,61.3,57.7,30.09,SSW,193,0.0,0.0,88,0.00,,,0.01,meteohub,2013-04-17 10:48:00,
2013-04-17 06:53:00,61.5,57.4,30.10,SSW,193,0.0,0.0,86,0.00,,,0.01,meteohub,2013-04-17 10:53:00,
2013-04-17 06:58:00,62.1,58.1,30.10,SE,138,0.0,0.0,87,0.00,,,0.01,meteohub,2013-04-17 10:58:00,
2013-04-17 07:03:00,62.1,58.5,30.10,SE,130,0.0,0.0,88,0.00,,,0.01,meteohub,2013-04-17 11:03:00,
2013-04-17 07:09:00,61.9,57.9,30.10,SE,130,0.0,2.0,87,0.00,,,0.01,meteohub,2013-04-17 11:09:00,
2013-04-17 07:14:00,62.2,58.6,30.10,SE,129,0.0,2.0,88,0.00,,,0.01,meteohub,2013-04-17 11:14:00,
2013-04-17 07:19:00,62.4,58.8,30.11,SE,129,0.0,2.0,88,0.00,,,0.01,meteohub,2013-04-17 11:19:00,
2013-04-17 07:24:00,62.6,59.4,30.10,ESE,121,0.0,0.0,89,0.00,,,0.01,meteohub,2013-04-17 11:24:00,
2013-04-17 07:29:00,62.8,59.2,30.11,ESE,121,0.0,0.0,88,0.00,,,0.01,meteohub,2013-04-17 11:29:00,
2013-04-17 07:34:00,63.1,59.5,30.11,East,89,0.0,0.0,88,0.00,,,0.01,meteohub,2013-04-17 11:34:00,
2013-04-17 07:39:00,63.5,59.5,30.11,ESE,120,0.0,0.0,87,0.00,,,0.01,meteohub,2013-04-17 11:39:00,
2013-04-17 07:44:00,63.7,59.7,30.11,ESE,120,0.0,0.0,87,0.00,,,0.01,meteohub,2013-04-17 11:44:00,
2013-04-17 07:49:00,63.9,59.9,30.11,ESE,120,0.0,0.0,87,0.00,,,0.01,meteohub,2013-04-17 11:49:00,
2013-04-17 07:54:00,63.9,59.9,30.11,ESE,120,0.0,0.0,87,0.00,,,0.01,meteohub,2013-04-17 11:54:00,
2013-04-17 07:59:00,64.2,59.9,30.11,ESE,120,0.0,0.0,86,0.00,,,0.01,meteohub,2013-04-17 11:59:00,
2013-04-17 08:04:00,64.6,59.9,30.11,SE,139,0.0,0.0,85,0.00,,,0.01,meteohub,2013-04-17 12:04:00,
2013-04-17 08:09:00,65.1,60.1,30.11,SE,138,0.0,0.0,84,0.00,,,0.01,meteohub,2013-04-17 12:09:00,
2013-04-17 08:14:00,65.5,60.4,30.11,SE,141,0.0,0.0,84,0.00,,,0.01,meteohub,2013-04-17 12:14:00,
2013-04-17 08:19:00,65.5,60.4,30.11,ESE,111,1.0,0.0,84,0.00,,,0.01,meteohub,2013-04-17 12:19:00,
2013-04-17 08:24:00,65.7,60.4,30.11,SE,131,0.0,2.0,83,0.00,,,0.01,meteohub,2013-04-17 12:24:00,
2013-04-17 08:29:00,65.7,60.4,30.11,ESE,111,0.0,2.0,83,0.00,,,0.01,meteohub,2013-04-17 12:29:00,
2013-04-17 08:34:00,65.8,60.6,30.10,ESE,122,0.0,2.0,83,0.00,,,0.01,meteohub,2013-04-17 12:34:00,
2013-04-17 08:39:00,66.0,60.4,30.10,SE,126,1.0,2.0,82,0.00,,,0.01,meteohub,2013-04-17 12:39:00,
2013-04-17 08:44:00,66.4,60.8,30.11,SE,142,1.0,3.0,82,0.00,,,0.01,meteohub,2013-04-17 12:44:00,
2013-04-17 08:49:00,66.7,60.8,30.10,ESE,118,0.0,3.0,81,0.00,,,0.01,meteohub,2013-04-17 12:49:00,
2013-04-17 08:54:00,67.3,61.0,30.11,SE,134,0.0,3.0,80,0.00,,,0.01,meteohub,2013-04-17 12:54:00,
2013-04-17 08:59:00,67.5,60.8,30.10,East,95,0.0,2.0,79,0.00,,,0.01,meteohub,2013-04-17 12:59:00,
2013-04-17 09:04:00,68.2,61.3,30.10,SE,127,0.0,3.0,79,0.00,,,0.01,meteohub,2013-04-17 13:04:00,
2013-04-17 09:09:00,68.9,61.3,30.10,NE,36,2.0,3.0,77,0.00,,,0.01,meteohub,2013-04-17 13:09:00,
2013-04-17 09:14:00,68.5,61.0,30.10,ESE,123,0.0,2.0,77,0.00,,,0.01,meteohub,2013-04-17 13:14:00,
2013-04-17 09:19:00,69.3,61.0,30.10,NE,53,1.0,2.0,75,0.00,,,0.01,meteohub,2013-04-17 13:19:00,
2013-04-17 09:24:00,69.4,61.2,30.11,NE,46,0.0,2.0,75,0.00,,,0.01,meteohub,2013-04-17 13:24:00,
2013-04-17 09:29:00,69.4,61.2,30.11,ENE,68,2.0,2.0,75,0.00,,,0.01,meteohub,2013-04-17 13:29:00,
2013-04-17 09:34:00,69.4,60.8,30.11,East,87,0.0,3.0,74,0.00,,,0.01,meteohub,2013-04-17 13:34:00,
2013-04-17 09:39:00,69.8,61.2,30.11,NNW,332,1.0,3.0,74,0.00,,,0.01,meteohub,2013-04-17 13:39:00,
2013-04-17 09:44:00,70.2,61.2,30.11,NNE,12,2.0,4.0,73,0.00,,,0.01,meteohub,2013-04-17 13:44:00,
2013-04-17 09:49:00,70.3,60.8,30.11,NNE,32,1.0,4.0,72,0.00,,,0.01,meteohub,2013-04-17 13:49:00,
2013-04-17 09:54:00,70.5,61.0,30.11,North,0,2.0,4.0,72,0.00,,,0.01,meteohub,2013-04-17 13:54:00,
2013-04-17 09:59:00,70.3,60.8,30.11,NW,324,1.0,4.0,72,0.00,,,0.01,meteohub,2013-04-17 13:59:00,
2013-04-17 10:04:00,70.2,60.6,30.11,NNW,340,0.0,4.0,72,0.00,,,0.01,meteohub,2013-04-17 14:04:00,
2013-04-17 10:09:00,70.5,61.0,30.11,NNE,18,2.0,5.0,72,0.00,,,0.01,meteohub,2013-04-17 14:09:00,
2013-04-17 10:14:00,70.7,61.2,30.11,ENE,65,0.0,5.0,72,0.00,,,0.01,meteohub,2013-04-17 14:14:00,
2013-04-17 10:19:00,71.2,61.3,30.11,South,169,0.0,5.0,71,0.00,,,0.01,meteohub,2013-04-17 14:19:00,
2013-04-17 10:24:00,71.6,61.3,30.12,ENE,58,0.0,4.0,70,0.00,,,0.01,meteohub,2013-04-17 14:24:00,
2013-04-17 10:29:00,71.8,61.5,30.11,ENE,77,0.0,4.0,70,0.00,,,0.01,meteohub,2013-04-17 14:29:00,
2013-04-17 10:34:00,72.0,61.7,30.11,NNE,33,0.0,3.0,70,0.00,,,0.01,meteohub,2013-04-17 14:34:00,
2013-04-17 10:39:00,72.7,61.9,30.12,ESE,122,2.0,2.0,69,0.00,,,0.01,meteohub,2013-04-17 14:39:00,
2013-04-17 10:44:00,72.9,61.7,30.12,SE,139,0.0,2.0,68,0.00,,,0.01,meteohub,2013-04-17 14:44:00,
2013-04-17 10:49:00,74.1,62.1,30.12,NE,43,2.0,3.0,66,0.00,,,0.01,meteohub,2013-04-17 14:49:00,
2013-04-17 10:54:00,74.1,61.5,30.12,SE,139,2.0,3.0,65,0.00,,,0.01,meteohub,2013-04-17 14:54:00,
2013-04-17 10:59:00,74.8,61.9,30.11,SE,134,3.0,3.0,64,0.00,,,0.01,meteohub,2013-04-17 14:59:00,
2013-04-17 11:04:00,75.4,62.4,30.11,WSW,249,1.0,3.0,64,0.00,,,0.01,meteohub,2013-04-17 15:04:00,
2013-04-17 11:09:00,76.5,62.1,30.11,South,184,0.0,3.0,61,0.00,,,0.01,meteohub,2013-04-17 15:09:00,
2013-04-17 11:14:00,77.2,61.7,30.11,West,279,1.0,3.0,59,0.00,,,0.01,meteohub,2013-04-17 15:14:00,
2013-04-17 11:19:00,77.5,62.1,30.11,North,8,2.0,3.0,59,0.00,,,0.01,meteohub,2013-04-17 15:19:00,
2013-04-17 11:24:00,76.8,61.0,30.11,NNW,340,4.0,6.0,58,0.00,,,0.01,meteohub,2013-04-17 15:24:00,
2013-04-17 11:29:00,76.3,61.0,30.10,WSW,257,1.0,6.0,59,0.00,,,0.01,meteohub,2013-04-17 15:29:00,
2013-04-17 11:35:00,76.5,61.0,30.11,SE,125,0.0,6.0,59,0.00,,,0.01,meteohub,2013-04-17 15:35:00,
2013-04-17 11:40:00,76.5,60.6,30.11,NW,318,3.0,5.0,58,0.00,,,0.01,meteohub,2013-04-17 15:40:00,
2013-04-17 11:45:00,76.8,61.0,30.11,SW,217,0.0,6.0,58,0.00,,,0.01,meteohub,2013-04-17 15:45:00,
2013-04-17 11:50:00,76.8,61.0,30.11,SW,214,1.0,6.0,58,0.00,,,0.01,meteohub,2013-04-17 15:50:00,
2013-04-17 11:55:00,76.6,61.2,30.11,NE,37,2.0,6.0,59,0.00,,,0.01,meteohub,2013-04-17 15:55:00,
2013-04-17 12:00:00,76.6,60.8,30.10,NNW,348,5.0,5.0,58,0.00,,,0.01,meteohub,2013-04-17 16:00:00,
2013-04-17 12:05:00,76.3,61.0,30.10,SSE,154,3.0,6.0,59,0.00,,,0.01,meteohub,2013-04-17 16:05:00,
2013-04-17 12:10:00,76.5,61.5,30.10,SW,222,3.0,6.0,60,0.00,,,0.01,meteohub,2013-04-17 16:10:00,
2013-04-17 12:15:00,76.8,60.4,30.10,NNW,327,1.0,6.0,57,0.00,,,0.01,meteohub,2013-04-17 16:15:00,
2013-04-17 12:20:00,77.9,61.0,30.10,South,191,0.0,5.0,56,0.00,,,0.01,meteohub,2013-04-17 16:20:00,
2013-04-17 12:25:00,78.6,60.6,30.09,NNW,331,4.0,5.0,54,0.00,,,0.01,meteohub,2013-04-17 16:25:00,
2013-04-17 12:30:00,77.5,60.6,30.09,South,188,2.0,5.0,56,0.00,,,0.01,meteohub,2013-04-17 16:30:00,
2013-04-17 12:35:00,78.1,60.1,30.09,SSE,166,1.0,6.0,54,0.00,,,0.01,meteohub,2013-04-17 16:35:00,
2013-04-17 12:40:00,78.6,60.1,30.09,NNW,331,2.0,6.0,53,0.00,,,0.01,meteohub,2013-04-17 16:40:00,
2013-04-17 12:45:00,78.1,59.5,30.09,NW,318,1.0,6.0,53,0.00,,,0.01,meteohub,2013-04-17 16:45:00,
2013-04-17 12:50:00,78.1,60.1,30.09,NE,54,1.0,6.0,54,0.00,,,0.01,meteohub,2013-04-17 16:50:00,
2013-04-17 12:55:00,78.4,59.9,30.09,WNW,297,2.0,6.0,53,0.00,,,0.01,meteohub,2013-04-17 16:55:00,
2013-04-17 13:00:00,77.7,59.7,30.09,NW,304,3.0,6.0,54,0.00,,,0.01,meteohub,2013-04-17 17:00:00,
2013-04-17 13:05:00,77.7,59.7,30.09,NNW,340,3.0,6.0,54,0.00,,,0.01,meteohub,2013-04-17 17:05:00,
2013-04-17 13:10:00,77.4,59.4,30.09,North,1,2.0,6.0,54,0.00,,,0.01,meteohub,2013-04-17 17:10:00,
2013-04-17 13:15:00,77.5,59.5,30.09,NNW,328,0.0,6.0,54,0.00,,,0.01,meteohub,2013-04-17 17:15:00,
2013-04-17 13:20:00,78.6,60.1,30.09,NNW,347,6.0,6.0,53,0.00,,,0.01,meteohub,2013-04-17 17:20:00,
2013-04-17 13:25:00,78.4,59.9,30.09,NNE,22,5.0,8.0,53,0.00,,,0.01,meteohub,2013-04-17 17:25:00,
2013-04-17 13:30:00,79.0,59.9,30.09,NNW,340,5.0,9.0,52,0.00,,,0.01,meteohub,2013-04-17 17:30:00,
2013-04-17 13:35:00,78.6,59.5,30.09,North,1,5.0,9.0,52,0.00,,,0.01,meteohub,2013-04-17 17:35:00,
2013-04-17 13:40:00,78.1,59.5,30.09,North,0,4.0,9.0,53,0.00,,,0.01,meteohub,2013-04-17 17:40:00,
2013-04-17 13:45:00,78.1,59.5,30.09,NNW,346,3.0,6.0,53,0.00,,,0.01,meteohub,2013-04-17 17:45:00,
2013-04-17 13:50:00,78.1,59.5,30.09,NNE,24,2.0,6.0,53,0.00,,,0.01,meteohub,2013-04-17 17:50:00,
2013-04-17 13:55:00,77.7,59.7,30.08,North,351,3.0,6.0,54,0.00,,,0.01,meteohub,2013-04-17 17:55:00,
2013-04-17 14:00:00,77.7,59.2,30.08,WNW,300,4.0,7.0,53,0.00,,,0.01,meteohub,2013-04-17 18:00:00,
2013-04-17 14:05:00,77.7,59.7,30.08,North,0,1.0,7.0,54,0.00,,,0.01,meteohub,2013-04-17 18:05:00,
2013-04-17 14:10:00,78.3,59.7,30.09,North,356,4.0,6.0,53,0.00,,,0.01,meteohub,2013-04-17 18:10:00,
2013-04-17 14:15:00,78.4,59.4,30.08,North,354,5.0,9.0,52,0.00,,,0.01,meteohub,2013-04-17 18:15:00,
2013-04-17 14:20:00,78.3,59.7,30.09,NNE,20,3.0,9.0,53,0.00,,,0.01,meteohub,2013-04-17 18:20:00,
2013-04-17 14:25:00,78.4,59.4,30.09,North,11,2.0,7.0,52,0.00,,,0.01,meteohub,2013-04-17 18:25:00,
2013-04-17 14:30:00,77.5,60.6,30.09,NNW,343,8.0,15.0,56,0.00,,,0.01,meteohub,2013-04-17 18:30:00,
2013-04-17 14:35:00,76.3,60.4,30.09,North,4,6.0,15.0,58,0.00,,,0.01,meteohub,2013-04-17 18:35:00,
2013-04-17 14:40:00,75.4,61.0,30.09,NE,56,10.0,16.0,61,0.00,,,0.01,meteohub,2013-04-17 18:40:00,
2013-04-17 14:45:00,75.6,60.6,30.09,East,91,7.0,16.0,60,0.00,,,0.01,meteohub,2013-04-17 18:45:00,
2013-04-17 14:50:00,75.7,60.8,30.09,NNE,32,5.0,16.0,60,0.00,,,0.01,meteohub,2013-04-17 18:50:00,
2013-04-17 14:55:00,75.9,61.5,30.09,NNE,25,5.0,13.0,61,0.00,,,0.01,meteohub,2013-04-17 18:55:00,
2013-04-17 15:00:00,76.1,61.2,30.09,NW,315,4.0,12.0,60,0.00,,,0.01,meteohub,2013-04-17 19:00:00,
2013-04-17 15:05:00,75.9,61.0,30.09,NNE,22,9.0,11.0,60,0.00,,,0.01,meteohub,2013-04-17 19:05:00,
2013-04-17 15:10:00,75.4,61.0,30.09,NE,56,5.0,11.0,61,0.00,,,0.01,meteohub,2013-04-17 19:10:00,
2013-04-17 15:15:00,74.8,61.0,30.09,ENE,65,4.0,10.0,62,0.00,,,0.01,meteohub,2013-04-17 19:15:00,
2013-04-17 15:20:00,74.8,61.0,30.09,SW,215,1.0,10.0,62,0.00,,,0.01,meteohub,2013-04-17 19:20:00,
2013-04-17 15:25:00,74.5,60.6,30.09,NE,56,9.0,10.0,62,0.00,,,0.01,meteohub,2013-04-17 19:25:00,
2013-04-17 15:30:00,73.6,60.3,30.09,NE,35,4.0,12.0,63,0.00,,,0.01,meteohub,2013-04-17 19:30:00,
2013-04-17 15:35:00,73.2,59.9,30.09,North,11,5.0,12.0,63,0.00,,,0.01,meteohub,2013-04-17 19:35:00,
2013-04-17 15:40:00,72.9,59.5,30.09,NE,55,7.0,13.0,63,0.00,,,0.01,meteohub,2013-04-17 19:40:00,
2013-04-17 15:45:00,72.7,59.7,30.10,NE,51,3.0,13.0,64,0.00,,,0.01,meteohub,2013-04-17 19:45:00,
2013-04-17 15:50:00,72.5,59.5,30.10,North,6,5.0,13.0,64,0.00,,,0.01,meteohub,2013-04-17 19:50:00,
2013-04-17 15:55:00,72.3,59.5,30.10,ENE,61,6.0,12.0,64,0.00,,,0.01,meteohub,2013-04-17 19:55:00,
2013-04-17 16:00:00,72.0,59.2,30.10,NE,43,4.0,12.0,64,0.00,,,0.01,meteohub,2013-04-17 20:00:00,
2013-04-17 16:05:00,72.0,59.2,30.10,North,8,11.0,14.0,64,0.00,,,0.01,meteohub,2013-04-17 20:05:00,
2013-04-17 16:10:00,71.6,58.8,30.10,NNW,333,4.0,14.0,64,0.00,,,0.01,meteohub,2013-04-17 20:10:00,
2013-04-17 16:15:00,71.2,58.5,30.10,ENE,60,6.0,14.0,64,0.00,,,0.01,meteohub,2013-04-17 20:15:00,
2013-04-17 16:21:00,71.2,58.5,30.10,ESE,105,5.0,13.0,64,0.00,,,0.01,meteohub,2013-04-17 20:21:00,
2013-04-17 16:26:00,71.8,58.5,30.10,NNE,22,10.0,13.0,63,0.00,,,0.01,meteohub,2013-04-17 20:26:00,
2013-04-17 16:31:00,72.1,58.8,30.10,ESE,113,3.0,10.0,63,0.00,,,0.01,meteohub,2013-04-17 20:31:00,
2013-04-17 16:36:00,72.7,58.8,30.10,NE,46,3.0,10.0,62,0.00,,,0.01,meteohub,2013-04-17 20:36:00,
2013-04-17 16:41:00,72.7,58.5,30.10,ENE,70,2.0,10.0,61,0.00,,,0.01,meteohub,2013-04-17 20:41:00,
2013-04-17 16:46:00,72.9,58.6,30.10,NE,51,2.0,11.0,61,0.00,,,0.01,meteohub,2013-04-17 20:46:00,
2013-04-17 16:51:00,72.5,57.7,30.10,ESE,119,1.0,11.0,60,0.00,,,0.01,meteohub,2013-04-17 20:51:00,
2013-04-17 16:56:00,72.9,58.6,30.10,East,101,3.0,9.0,61,0.00,,,0.01,meteohub,2013-04-17 20:56:00,
2013-04-17 17:01:00,72.7,57.9,30.10,ENE,72,5.0,9.0,60,0.00,,,0.01,meteohub,2013-04-17 21:01:00,
2013-04-17 17:06:00,72.0,58.3,30.10,NE,47,2.0,7.0,62,0.00,,,0.01,meteohub,2013-04-17 21:06:00,
2013-04-17 17:11:00,71.8,57.6,30.11,NE,53,2.0,9.0,61,0.00,,,0.01,meteohub,2013-04-17 21:11:00,
2013-04-17 17:16:00,71.4,57.7,30.11,East,93,2.0,9.0,62,0.00,,,0.01,meteohub,2013-04-17 21:16:00,
2013-04-17 17:22:00,71.4,57.7,30.11,North,4,3.0,9.0,62,0.00,,,0.01,meteohub,2013-04-17 21:22:00,
2013-04-17 17:27:00,71.4,57.7,30.11,North,9,3.0,9.0,62,0.00,,,0.01,meteohub,2013-04-17 21:27:00,
2013-04-17 17:32:00,71.4,57.7,30.10,East,92,1.0,6.0,62,0.00,,,0.01,meteohub,2013-04-17 21:32:00,
2013-04-17 17:37:00,71.2,57.6,30.10,SE,127,4.0,7.0,62,0.00,,,0.01,meteohub,2013-04-17 21:37:00,
2013-04-17 17:42:00,71.2,57.6,30.10,East,96,4.0,8.0,62,0.00,,,0.01,meteohub,2013-04-17 21:42:00,
2013-04-17 17:47:00,71.1,57.4,30.10,NE,43,3.0,8.0,62,0.00,,,0.01,meteohub,2013-04-17 21:47:00,
2013-04-17 17:52:00,71.1,57.4,30.10,South,174,2.0,8.0,62,0.00,,,0.01,meteohub,2013-04-17 21:52:00,
2013-04-17 17:57:00,70.9,57.2,30.10,NE,36,7.0,10.0,62,0.00,,,0.01,meteohub,2013-04-17 21:57:00,
2013-04-17 18:02:00,70.7,57.0,30.10,NNE,20,2.0,10.0,62,0.00,,,0.01,meteohub,2013-04-17 22:02:00,
2013-04-17 18:07:00,70.7,57.6,30.10,ENE,68,2.0,10.0,63,0.00,,,0.01,meteohub,2013-04-17 22:07:00,
2013-04-17 18:12:00,70.5,57.4,30.10,ESE,111,1.0,8.0,63,0.00,,,0.01,meteohub,2013-04-17 22:12:00,
2013-04-17 18:17:00,70.3,57.2,30.10,ESE,113,3.0,7.0,63,0.00,,,0.01,meteohub,2013-04-17 22:17:00,
2013-04-17 18:22:00,70.2,57.0,30.11,ESE,113,2.0,7.0,63,0.00,,,0.01,meteohub,2013-04-17 22:22:00,
2013-04-17 18:27:00,70.2,57.0,30.11,SSE,160,1.0,8.0,63,0.00,,,0.01,meteohub,2013-04-17 22:27:00,
2013-04-17 18:32:00,70.0,56.8,30.11,East,90,1.0,8.0,63,0.00,,,0.01,meteohub,2013-04-17 22:32:00,
2013-04-17 18:37:00,70.0,57.2,30.11,ESE,123,0.0,8.0,64,0.00,,,0.01,meteohub,2013-04-17 22:37:00,
2013-04-17 18:42:00,70.0,56.8,30.11,NNE,33,1.0,6.0,63,0.00,,,0.01,meteohub,2013-04-17 22:42:00,
2013-04-17 18:47:00,70.0,56.8,30.11,East,86,2.0,6.0,63,0.00,,,0.01,meteohub,2013-04-17 22:47:00,
2013-04-17 18:52:00,69.6,56.8,30.11,ESE,107,2.0,5.0,64,0.00,,,0.01,meteohub,2013-04-17 22:52:00,
2013-04-17 18:57:00,69.4,56.3,30.11,East,82,1.0,10.0,63,0.00,,,0.01,meteohub,2013-04-17 22:57:00,
2013-04-17 19:02:00,69.3,56.1,30.11,East,82,2.0,10.0,63,0.00,,,0.01,meteohub,2013-04-17 23:02:00,
2013-04-17 19:07:00,69.1,55.9,30.11,ESE,121,4.0,10.0,63,0.00,,,0.01,meteohub,2013-04-17 23:07:00,
2013-04-17 19:12:00,68.9,56.3,30.11,SE,139,1.0,8.0,64,0.00,,,0.01,meteohub,2013-04-17 23:12:00,
2013-04-17 19:17:00,68.7,55.6,30.11,ESE,113,3.0,9.0,63,0.00,,,0.01,meteohub,2013-04-17 23:17:00,
2013-04-17 19:22:00,68.4,55.2,30.12,SE,132,1.0,9.0,63,0.00,,,0.01,meteohub,2013-04-17 23:22:00,
2013-04-17 19:27:00,68.2,55.6,30.12,SSE,150,0.0,9.0,64,0.00,,,0.01,meteohub,2013-04-17 23:27:00,
2013-04-17 19:32:00,68.2,55.6,30.12,SSE,165,0.0,8.0,64,0.00,,,0.01,meteohub,2013-04-17 23:32:00,
2013-04-17 19:37:00,68.0,55.4,30.12,ENE,75,4.0,7.0,64,0.00,,,0.01,meteohub,2013-04-17 23:37:00,
2013-04-17 19:42:00,67.8,55.2,30.12,NNE,20,1.0,7.0,64,0.00,,,0.01,meteohub,2013-04-17 23:42:00,
2013-04-17 19:47:00,67.8,55.2,30.12,ESE,115,1.0,5.0,64,0.00,,,0.01,meteohub,2013-04-17 23:47:00,
2013-04-17 19:52:00,67.6,55.0,30.12,ESE,108,1.0,5.0,64,0.00,,,0.01,meteohub,2013-04-17 23:52:00,
2013-04-17 19:57:00,67.6,55.4,30.13,East,101,1.0,5.0,65,0.00,,,0.01,meteohub,2013-04-17 23:57:00,
2013-04-17 20:02:00,67.5,55.2,30.13,ESE,104,2.0,5.0,65,0.00,,,0.01,meteohub,2013-04-18 00:02:00,
2013-04-17 20:07:00,67.5,55.2,30.13,ESE,105,6.0,6.0,65,0.00,,,0.01,meteohub,2013-04-18 00:07:00,
2013-04-17 20:12:00,67.5,55.8,30.13,East,95,1.0,7.0,66,0.00,,,0.01,meteohub,2013-04-18 00:12:00,
2013-04-17 20:17:00,67.3,55.6,30.13,East,101,2.0,7.0,66,0.00,,,0.01,meteohub,2013-04-18 00:17:00,
2013-04-17 20:22:00,67.3,55.6,30.13,ESE,108,2.0,7.0,66,0.00,,,0.01,meteohub,2013-04-18 00:22:00,
2013-04-17 20:27:00,67.1,55.8,30.13,SE,142,1.0,6.0,67,0.00,,,0.01,meteohub,2013-04-18 00:27:00,
2013-04-17 20:32:00,67.1,55.8,30.13,NE,46,4.0,6.0,67,0.00,,,0.01,meteohub,2013-04-18 00:32:00,
2013-04-17 20:37:00,66.9,55.6,30.13,ENE,77,2.0,5.0,67,0.00,,,0.01,meteohub,2013-04-18 00:37:00,
2013-04-17 20:42:00,66.7,55.8,30.13,SSE,160,4.0,4.0,68,0.00,,,0.01,meteohub,2013-04-18 00:42:00,
2013-04-17 20:47:00,66.6,55.6,30.13,SSE,162,0.0,7.0,68,0.00,,,0.01,meteohub,2013-04-18 00:47:00,
2013-04-17 20:52:00,66.6,56.1,30.13,NE,56,1.0,7.0,69,0.00,,,0.01,meteohub,2013-04-18 00:52:00,
2013-04-17 20:57:00,66.4,55.9,30.14,SE,126,1.0,7.0,69,0.00,,,0.01,meteohub,2013-04-18 00:57:00,
2013-04-17 21:02:00,66.2,56.1,30.14,ESE,122,3.0,6.0,70,0.00,,,0.01,meteohub,2013-04-18 01:02:00,
2013-04-17 21:07:00,66.0,56.3,30.14,NNE,32,1.0,7.0,71,0.00,,,0.01,meteohub,2013-04-18 01:07:00,
2013-04-17 21:12:00,66.0,56.3,30.14,SE,135,1.0,7.0,71,0.00,,,0.01,meteohub,2013-04-18 01:12:00,
2013-04-17 21:17:00,65.8,56.1,30.14,SSE,149,2.0,7.0,71,0.00,,,0.01,meteohub,2013-04-18 01:17:00,
2013-04-17 21:22:00,65.8,56.1,30.15,SE,134,1.0,7.0,71,0.00,,,0.01,meteohub,2013-04-18 01:22:00,
2013-04-17 21:27:00,65.8,56.1,30.15,SE,145,2.0,8.0,71,0.00,,,0.01,meteohub,2013-04-18 01:27:00,
2013-04-17 21:33:00,65.7,56.3,30.15,SSW,212,2.0,8.0,72,0.00,,,0.01,meteohub,2013-04-18 01:33:00,
2013-04-17 21:38:00,65.7,56.3,30.16,SE,127,1.0,9.0,72,0.00,,,0.01,meteohub,2013-04-18 01:38:00,
2013-04-17 21:43:00,65.5,56.3,30.15,ESE,108,1.0,9.0,72,0.00,,,0.01,meteohub,2013-04-18 01:43:00,
2013-04-17 21:48:00,65.1,56.3,30.15,ESE,114,6.0,9.0,73,0.00,,,0.01,meteohub,2013-04-18 01:48:00,
2013-04-17 21:53:00,64.9,56.5,30.15,SE,138,2.0,7.0,74,0.00,,,0.01,meteohub,2013-04-18 01:53:00,
2013-04-17 21:58:00,64.8,56.3,30.15,South,170,2.0,8.0,74,0.00,,,0.01,meteohub,2013-04-18 01:58:00,
2013-04-17 22:03:00,64.8,56.7,30.15,ENE,65,1.0,9.0,75,0.00,,,0.01,meteohub,2013-04-18 02:03:00,
2013-04-17 22:08:00,64.6,56.5,30.15,SE,132,6.0,9.0,75,0.00,,,0.01,meteohub,2013-04-18 02:08:00,
2013-04-17 22:13:00,64.4,56.7,30.15,SSE,149,3.0,9.0,76,0.00,,,0.01,meteohub,2013-04-18 02:13:00,
2013-04-17 22:18:00,64.2,56.5,30.15,SE,134,5.0,11.0,76,0.00,,,0.01,meteohub,2013-04-18 02:18:00,
2013-04-17 22:23:00,64.0,56.3,30.15,SSE,156,6.0,11.0,76,0.00,,,0.01,meteohub,2013-04-18 02:23:00,
2013-04-17 22:28:00,63.9,56.5,30.16,NE,56,1.0,11.0,77,0.00,,,0.01,meteohub,2013-04-18 02:28:00,
2013-04-17 22:33:00,63.7,56.3,30.16,SE,139,3.0,9.0,77,0.00,,,0.01,meteohub,2013-04-18 02:33:00,
2013-04-17 22:38:00,63.5,56.5,30.16,ENE,77,0.0,9.0,78,0.00,,,0.01,meteohub,2013-04-18 02:38:00,
2013-04-17 22:43:00,63.3,56.3,30.16,ESE,121,1.0,8.0,78,0.00,,,0.01,meteohub,2013-04-18 02:43:00,
2013-04-17 22:48:00,63.3,56.3,30.17,ESE,115,1.0,8.0,78,0.00,,,0.01,meteohub,2013-04-18 02:48:00,
2013-04-17 22:53:00,63.7,56.7,30.17,SE,127,0.0,6.0,78,0.00,,,0.01,meteohub,2013-04-18 02:53:00,
2013-04-17 22:58:00,63.7,56.3,30.17,ESE,118,0.0,3.0,77,0.00,,,0.01,meteohub,2013-04-18 02:58:00,
2013-04-17 23:03:00,63.7,56.3,30.17,SE,130,2.0,5.0,77,0.00,,,0.01,meteohub,2013-04-18 03:03:00,
2013-04-17 23:08:00,63.7,56.3,30.17,ESE,121,2.0,5.0,77,0.00,,,0.01,meteohub,2013-04-18 03:08:00,
2013-04-17 23:13:00,63.7,56.3,30.17,SE,131,1.0,5.0,77,0.00,,,0.01,meteohub,2013-04-18 03:13:00,
2013-04-17 23:18:00,63.7,55.9,30.16,SE,146,4.0,4.0,76,0.00,,,0.01,meteohub,2013-04-18 03:18:00,
2013-04-17 23:23:00,63.7,55.9,30.16,ESE,120,2.0,5.0,76,0.00,,,0.01,meteohub,2013-04-18 03:23:00,
2013-04-17 23:28:00,63.7,55.9,30.16,SE,125,2.0,6.0,76,0.00,,,0.01,meteohub,2013-04-18 03:28:00,
2013-04-17 23:33:00,63.7,55.9,30.16,ESE,110,1.0,6.0,76,0.00,,,0.01,meteohub,2013-04-18 03:33:00,
2013-04-17 23:38:00,63.7,55.9,30.16,SE,124,1.0,6.0,76,0.00,,,0.01,meteohub,2013-04-18 03:38:00,
2013-04-17 23:43:00,63.7,55.9,30.16,SE,135,0.0,6.0,76,0.00,,,0.01,meteohub,2013-04-18 03:43:00,
2013-04-17 23:48:00,63.7,55.6,30.16,SE,138,1.0,5.0,75,0.00,,,0.01,meteohub,2013-04-18 03:48:00,
2013-04-17 23:53:00,63.5,55.8,30.16,ENE,71,0.0,5.0,76,0.00,,,0.01,meteohub,2013-04-18 03:53:00,
2013-04-17 23:58:00,63.5,55.8,30.16,ENE,58,2.0,5.0,76,0.00,,,0.01,meteohub,2013-04-18 03:58:00,